Weather History for Sierra Vista, AZ

Change the Weather History Date:

Thursday, January 10, 2013

  Actual Average Record
Temperature  
Mean Temperature 50 °F -  
Max Temperature 64 °F 59 °F 73 °F (1990)
Min Temperature 35 °F 37 °F 23 °F (1989)
Degree Days  
Heating Degree Days 16    
Moisture  
Dew Point 16 °F    
Average Humidity 28    
Maximum Humidity 44    
Minimum Humidity 15    
Precipitation  
Precipitation 0.00 in - - ()
Sea Level Pressure  
Sea Level Pressure 29.93 in    
Wind  
Wind Speed 9 mph (SSW)    
Max Wind Speed 38 mph    
Max Gust Speed 48 mph    
Visibility 10 miles    
Events      
Averages and records for this station are not official NWS values.
T = Trace of Precipitation, MM = Missing Value Source: NWS Daily Summary

Daily Weather History Graph

Daily Weather History Graph

Search for Another Location

Airport:

Trip Planner

Search our weather history database for the weather conditions in past years. The results will help you decide how hot, cold, wet, or windy it might be!

Date:

Astronomy

Jan. 10, 2013 Rise Set
Actual Time 7:21 AM MST 5:36 PM MST
Civil Twilight 6:55 AM MST 6:03 PM MST
Nautical Twilight 6:25 AM MST 6:33 PM MST
Astronomical Twilight 5:55 AM MST 7:02 PM MST
Moon 6:05 AM MST (1/10) 4:47 PM MST (1/10)
Length of Visible Light 11h 07m
Length of Day
10h 14m
Waning Crescent, 2% of the Moon is Illuminated
Jan 10
Waning Crescent
Jan 11
New
Jan 18
First Quarter
Jan 26
Full
Feb 3
Last Quarter

Hourly Weather History & Observations

Time (MST) Temp. Windchill Dew Point Humidity Pressure Visibility Wind Dir Wind Speed Gust Speed Precip Events Conditions
12:55 AM 41.0 °F 35.8 °F 14.0 °F 33% 30.05 in 10.0 mi WSW 8.1 mph - N/A   Scattered Clouds
1:55 AM 42.8 °F - 12.2 °F 29% 30.04 in 10.0 mi Variable 1.2 mph - N/A   Scattered Clouds
2:55 AM 42.8 °F - 15.8 °F 34% 30.01 in 10.0 mi Variable 1.2 mph - N/A   Scattered Clouds
3:55 AM 35.6 °F 30.7 °F 15.8 °F 44% 30.01 in 10.0 mi Variable 5.8 mph - N/A   Scattered Clouds
4:55 AM 39.2 °F 35.0 °F 15.8 °F 39% 30.01 in 10.0 mi WSW 5.8 mph - N/A   Scattered Clouds
5:55 AM 37.4 °F 32.1 °F 15.8 °F 41% 30.02 in 10.0 mi West 6.9 mph - N/A   Scattered Clouds
6:55 AM 39.2 °F 37.0 °F 17.6 °F 42% 30.02 in 10.0 mi WSW 3.5 mph - N/A   Scattered Clouds
7:55 AM 39.2 °F 35.0 °F 17.6 °F 42% 30.04 in 10.0 mi SE 5.8 mph - N/A   Mostly Cloudy
8:55 AM 42.8 °F - 17.6 °F 36% 30.04 in 10.0 mi Calm Calm - N/A   Mostly Cloudy
9:55 AM 46.4 °F 44.3 °F 19.4 °F 34% 30.01 in 10.0 mi East 4.6 mph - N/A   Mostly Cloudy
10:55 AM 50.0 °F - 19.4 °F 30% 29.99 in 10.0 mi Calm Calm - N/A   Mostly Cloudy
11:55 AM 55.4 °F - 19.4 °F 25% 29.91 in 10.0 mi ENE 5.8 mph - N/A   Mostly Cloudy
12:55 PM 62.6 °F - 15.8 °F 16% 29.87 in 10.0 mi South 11.5 mph 21.9 mph N/A   Mostly Cloudy
1:55 PM 64.4 °F - 15.8 °F 15% 29.85 in 10.0 mi SSW 13.8 mph 33.4 mph N/A   Mostly Cloudy
2:55 PM 60.8 °F - 15.8 °F 17% 29.85 in 10.0 mi SW 19.6 mph 28.8 mph N/A   Mostly Cloudy
3:55 PM 60.8 °F - 17.6 °F 19% 29.87 in 10.0 mi SW 9.2 mph 21.9 mph N/A   Mostly Cloudy
4:55 PM 57.2 °F - 15.8 °F 20% 29.87 in 10.0 mi SSW 13.8 mph 26.5 mph N/A   Mostly Cloudy
5:55 PM 55.4 °F - 15.8 °F 21% 29.88 in 10.0 mi South 13.8 mph 23.0 mph N/A   Mostly Cloudy
6:55 PM 53.6 °F - 15.8 °F 22% 29.86 in 10.0 mi SSW 18.4 mph 27.6 mph N/A   Overcast
7:55 PM 53.6 °F - 14.0 °F 21% 29.86 in 10.0 mi SSW 18.4 mph 24.2 mph N/A   Overcast
8:55 PM 51.8 °F - 14.0 °F 22% 29.81 in 10.0 mi SW 23.0 mph 33.4 mph N/A   Overcast
9:55 PM 51.8 °F - 14.0 °F 22% 29.81 in 10.0 mi SSW 38.0 mph 48.3 mph N/A   Overcast
10:55 PM 51.8 °F - 12.2 °F 21% 29.79 in 10.0 mi SSW 24.2 mph 32.2 mph N/A   Overcast
11:55 PM 50.0 °F - 15.8 °F 26% 29.78 in 10.0 mi SSW 29.9 mph 42.6 mph N/A   Mostly Cloudy